Time,TemperatureF,DewpointF,PressureIn,WindDirection,WindDirectionDegrees,WindSpeedMPH,WindSpeedGustMPH,Humidity,HourlyPrecipIn,Conditions,Clouds,dailyrainin,SoftwareType,DateUTC
2013-03-10 00:01:00,35.0,32.0,29.80,South,180,9.0,20.0,90,-99.99,,,-99.99,,2013-03-10 05:01:00,
2013-03-10 00:11:00,35.0,32.0,29.80,South,180,9.0,20.0,90,-99.99,,,-99.99,,2013-03-10 05:11:00,
2013-03-10 00:22:00,35.0,32.0,29.79,SSE,165,8.0,21.0,91,-99.99,,,-99.99,,2013-03-10 05:22:00,
2013-03-10 00:31:00,35.0,32.0,29.79,South,170,6.0,22.0,92,-99.99,,,-99.99,,2013-03-10 05:31:00,
2013-03-10 00:42:00,35.0,32.0,29.79,South,170,6.0,22.0,92,-99.99,,,-99.99,,2013-03-10 05:42:00,
2013-03-10 00:52:00,35.0,32.0,29.79,South,175,10.0,26.0,92,-99.99,,,-99.99,,2013-03-10 05:52:00,
2013-03-10 01:01:00,35.0,33.0,29.79,South,180,7.0,19.0,93,-99.99,,,-99.99,,2013-03-10 06:01:00,
2013-03-10 01:11:00,35.0,33.0,29.79,South,180,7.0,19.0,93,-99.99,,,-99.99,,2013-03-10 06:11:00,
2013-03-10 01:22:00,35.0,33.0,29.79,SSE,160,9.0,19.0,93,-99.99,,,-99.99,,2013-03-10 06:22:00,
2013-03-10 01:32:00,35.0,33.0,29.79,South,180,8.0,19.0,93,-99.99,,,-99.99,,2013-03-10 06:32:00,
2013-03-10 01:42:00,35.0,33.0,29.79,South,180,8.0,19.0,93,-99.99,,,-99.99,,2013-03-10 06:42:00,
2013-03-10 01:51:00,35.0,33.0,29.79,South,170,6.0,20.0,94,-99.99,,,-99.99,,2013-03-10 06:51:00,
2013-03-10 03:02:00,35.0,33.0,29.79,South,170,6.0,20.0,94,-99.99,,,-99.99,,2013-03-10 07:02:00,
2013-03-10 03:11:00,35.0,33.0,29.79,South,170,6.0,20.0,94,-99.99,,,-99.99,,2013-03-10 07:11:00,
2013-03-10 03:21:00,35.0,34.0,29.78,South,170,6.0,16.0,94,-99.99,,,-99.99,,2013-03-10 07:21:00,
2013-03-10 03:32:00,35.0,33.0,29.77,South,175,6.0,18.0,94,-99.99,,,-99.99,,2013-03-10 07:32:00,
2013-03-10 03:42:00,35.0,33.0,29.77,South,175,6.0,18.0,94,-99.99,,,-99.99,,2013-03-10 07:42:00,
2013-03-10 03:52:00,35.0,34.0,29.77,SSE,165,4.0,16.0,95,-99.99,,,-99.99,,2013-03-10 07:52:00,
2013-03-10 04:01:00,35.0,34.0,29.77,SSE,165,4.0,16.0,95,-99.99,,,-99.99,,2013-03-10 08:01:00,
2013-03-10 04:11:00,35.0,34.0,29.77,SSE,165,4.0,16.0,95,-99.99,,,-99.99,,2013-03-10 08:11:00,
2013-03-10 04:21:00,35.0,34.0,29.77,SSW,210,5.0,14.0,95,-99.99,,,-99.99,,2013-03-10 08:21:00,
2013-03-10 04:31:00,35.0,34.0,29.76,SSW,195,4.0,14.0,95,-99.99,,,-99.99,,2013-03-10 08:31:00,
2013-03-10 04:42:00,35.0,34.0,29.76,South,185,8.0,14.0,95,-99.99,,,-99.99,,2013-03-10 08:42:00,
2013-03-10 04:52:00,35.0,34.0,29.75,South,170,9.0,14.0,95,-99.99,,,-99.99,,2013-03-10 08:52:00,
2013-03-10 05:01:00,35.0,34.0,29.75,South,170,9.0,14.0,95,-99.99,,,-99.99,,2013-03-10 09:01:00,
2013-03-10 05:11:00,35.0,34.0,29.75,South,170,9.0,14.0,95,-99.99,,,-99.99,,2013-03-10 09:11:00,
2013-03-10 05:21:00,35.0,34.0,29.73,South,170,6.0,11.0,96,-99.99,,,-99.99,,2013-03-10 09:21:00,
2013-03-10 05:31:00,35.0,34.0,29.73,South,175,4.0,14.0,96,-99.99,,,-99.99,,2013-03-10 09:31:00,
2013-03-10 05:41:00,35.0,34.0,29.73,South,175,4.0,14.0,96,-99.99,,,-99.99,,2013-03-10 09:41:00,
2013-03-10 05:51:00,35.0,34.0,29.74,South,180,5.0,12.0,96,-99.99,,,-99.99,,2013-03-10 09:51:00,
2013-03-10 06:01:00,35.0,34.0,29.73,SSE,155,4.0,13.0,96,-99.99,,,-99.99,,2013-03-10 10:01:00,
2013-03-10 06:11:00,35.0,34.0,29.74,South,175,4.0,10.0,96,-99.99,,,-99.99,,2013-03-10 10:11:00,
2013-03-10 06:21:00,35.0,34.0,29.74,South,175,4.0,10.0,96,-99.99,,,-99.99,,2013-03-10 10:21:00,
2013-03-10 06:32:00,35.0,34.0,29.74,SSW,205,4.0,11.0,96,-99.99,,,-99.99,,2013-03-10 10:32:00,
2013-03-10 06:42:00,35.0,34.0,29.74,SSW,205,4.0,11.0,96,-99.99,,,-99.99,,2013-03-10 10:42:00,
2013-03-10 06:52:00,35.0,34.0,29.75,SSE,160,2.0,9.0,96,-99.99,,,-99.99,,2013-03-10 10:52:00,
2013-03-10 07:01:00,35.0,34.0,29.75,South,175,6.0,9.0,96,-99.99,,,-99.99,,2013-03-10 11:01:00,
2013-03-10 07:12:00,35.0,34.0,29.75,South,175,6.0,9.0,96,-99.99,,,-99.99,,2013-03-10 11:12:00,
2013-03-10 07:21:00,35.0,34.0,29.75,South,175,3.0,8.0,96,-99.99,,,-99.99,,2013-03-10 11:21:00,
2013-03-10 07:32:00,35.0,34.0,29.75,South,185,4.0,9.0,96,-99.99,,,-99.99,,2013-03-10 11:32:00,
2013-03-10 07:42:00,35.0,34.0,29.75,South,185,4.0,9.0,96,-99.99,,,-99.99,,2013-03-10 11:42:00,
2013-03-10 07:52:00,35.0,34.0,29.76,SSW,200,2.0,9.0,96,-99.99,,,-99.99,,2013-03-10 11:52:00,
2013-03-10 08:01:00,35.0,34.0,29.76,SSE,155,4.0,9.0,97,-99.99,,,-99.99,,2013-03-10 12:01:00,
2013-03-10 08:11:00,35.0,34.0,29.76,SSE,155,4.0,9.0,97,-99.99,,,-99.99,,2013-03-10 12:11:00,
2013-03-10 08:21:00,35.0,34.0,29.76,South,190,1.0,8.0,97,-99.99,,,-99.99,,2013-03-10 12:21:00,
2013-03-10 08:31:00,35.0,34.0,29.76,South,190,2.0,6.0,97,-99.99,,,-99.99,,2013-03-10 12:31:00,
2013-03-10 08:42:00,35.0,34.0,29.76,South,190,2.0,6.0,97,-99.99,,,-99.99,,2013-03-10 12:42:00,
2013-03-10 08:51:00,34.0,34.0,29.76,South,180,2.0,5.0,97,-99.99,,,-99.99,,2013-03-10 12:51:00,
2013-03-10 09:01:00,34.0,34.0,29.76,South,180,2.0,5.0,97,-99.99,,,-99.99,,2013-03-10 13:01:00,
2013-03-10 09:11:00,34.0,34.0,29.76,South,180,2.0,5.0,97,-99.99,,,-99.99,,2013-03-10 13:11:00,
2013-03-10 09:21:00,35.0,34.0,29.77,South,175,1.0,3.0,97,-99.99,,,-99.99,,2013-03-10 13:21:00,
2013-03-10 09:31:00,35.0,34.0,29.76,SSE,150,1.0,4.0,97,-99.99,,,-99.99,,2013-03-10 13:31:00,
2013-03-10 09:41:00,35.0,34.0,29.76,SSE,150,1.0,4.0,97,-99.99,,,-99.99,,2013-03-10 13:41:00,
2013-03-10 09:52:00,35.0,34.0,29.77,SW,225,1.0,3.0,97,-99.99,,,-99.99,,2013-03-10 13:52:00,
2013-03-10 10:01:00,35.0,34.0,29.77,SW,225,1.0,3.0,97,-99.99,,,-99.99,,2013-03-10 14:01:00,
2013-03-10 10:21:00,35.0,34.0,29.76,SSE,155,1.0,2.0,97,-99.99,,,-99.99,,2013-03-10 14:21:00,
2013-03-10 10:32:00,35.0,34.0,29.76,SE,130,1.0,3.0,97,-99.99,,,-99.99,,2013-03-10 14:32:00,
2013-03-10 10:41:00,35.0,34.0,29.76,SE,130,1.0,3.0,97,-99.99,,,-99.99,,2013-03-10 14:41:00,
2013-03-10 10:51:00,35.0,34.0,29.77,SW,225,0.0,1.0,97,-99.99,,,-99.99,,2013-03-10 14:51:00,
2013-03-10 11:01:00,35.0,34.0,29.77,SW,225,0.0,1.0,97,-99.99,,,-99.99,,2013-03-10 15:01:00,
2013-03-10 11:21:00,35.0,35.0,29.79,NNW,345,2.0,4.0,97,-99.99,,,-99.99,,2013-03-10 15:21:00,
2013-03-10 11:32:00,35.0,34.0,29.80,North,355,2.0,5.0,97,-99.99,,,-99.99,,2013-03-10 15:32:00,
2013-03-10 11:42:00,35.0,34.0,29.80,North,355,2.0,5.0,97,-99.99,,,-99.99,,2013-03-10 15:42:00,
2013-03-10 11:51:00,35.0,34.0,29.80,NNW,335,5.0,11.0,97,-99.99,,,-99.99,,2013-03-10 15:51:00,
2013-03-10 12:01:00,35.0,34.0,29.80,NNW,335,5.0,11.0,97,-99.99,,,-99.99,,2013-03-10 16:01:00,
2013-03-10 13:51:00,34.0,33.0,29.84,NNW,345,6.0,15.0,96,-99.99,,,-99.99,,2013-03-10 17:51:00,
2013-03-10 14:01:00,34.0,33.0,29.84,NNW,345,6.0,15.0,96,-99.99,,,-99.99,,2013-03-10 18:01:00,
2013-03-10 14:22:00,34.0,33.0,29.86,NNW,340,6.0,13.0,95,-99.99,,,-99.99,,2013-03-10 18:22:00,
2013-03-10 14:32:00,34.0,33.0,29.86,NNW,340,6.0,13.0,95,-99.99,,,-99.99,,2013-03-10 18:32:00,
2013-03-10 14:52:00,34.0,33.0,29.88,NW,315,7.0,12.0,93,-99.99,,,-99.99,,2013-03-10 18:52:00,
2013-03-10 15:01:00,35.0,33.0,29.88,NW,320,7.0,19.0,93,-99.99,,,-99.99,,2013-03-10 19:01:00,
2013-03-10 15:11:00,35.0,33.0,29.88,NW,320,7.0,19.0,93,-99.99,,,-99.99,,2013-03-10 19:11:00,
2013-03-10 15:21:00,34.0,32.0,29.88,NW,305,7.0,15.0,92,-99.99,,,-99.99,,2013-03-10 19:21:00,
2013-03-10 15:32:00,34.0,32.0,29.88,NW,325,8.0,12.0,91,-99.99,,,-99.99,,2013-03-10 19:32:00,
2013-03-10 15:42:00,34.0,32.0,29.88,NW,325,8.0,12.0,91,-99.99,,,-99.99,,2013-03-10 19:42:00,
2013-03-10 15:52:00,34.0,32.0,29.87,NNW,330,7.0,14.0,91,-99.99,,,-99.99,,2013-03-10 19:52:00,
2013-03-10 16:02:00,34.0,32.0,29.87,NNW,330,7.0,14.0,91,-99.99,,,-99.99,,2013-03-10 20:02:00,
2013-03-10 16:22:00,35.0,32.0,29.87,NNW,330,7.0,14.0,89,-99.99,,,-99.99,,2013-03-10 20:22:00,
2013-03-10 16:32:00,34.0,31.0,29.88,NNW,335,5.0,13.0,89,-99.99,,,-99.99,,2013-03-10 20:32:00,
2013-03-10 16:42:00,34.0,31.0,29.88,NNW,335,5.0,13.0,89,-99.99,,,-99.99,,2013-03-10 20:42:00,
2013-03-10 16:52:00,34.0,31.0,29.90,NW,325,6.0,13.0,89,-99.99,,,-99.99,,2013-03-10 20:52:00,
2013-03-10 17:02:00,34.0,31.0,29.90,NW,325,6.0,13.0,89,-99.99,,,-99.99,,2013-03-10 21:02:00,
2013-03-10 17:23:00,33.0,31.0,29.91,North,350,9.0,15.0,89,-99.99,,,-99.99,,2013-03-10 21:23:00,
2013-03-10 17:32:00,34.0,30.0,29.90,North,350,8.0,17.0,88,-99.99,,,-99.99,,2013-03-10 21:32:00,
2013-03-10 17:42:00,34.0,30.0,29.90,North,350,8.0,17.0,88,-99.99,,,-99.99,,2013-03-10 21:42:00,
2013-03-10 17:52:00,33.0,30.0,29.90,North,355,8.0,13.0,87,-99.99,,,-99.99,,2013-03-10 21:52:00,
2013-03-10 18:02:00,33.0,30.0,29.89,North,355,9.0,19.0,87,-99.99,,,-99.99,,2013-03-10 22:02:00,
2013-03-10 18:12:00,33.0,30.0,29.89,North,355,9.0,19.0,87,-99.99,,,-99.99,,2013-03-10 22:12:00,
2013-03-10 18:22:00,33.0,29.0,29.89,North,0,7.0,18.0,86,-99.99,,,-99.99,,2013-03-10 22:22:00,
2013-03-10 18:32:00,33.0,29.0,29.88,North,355,11.0,18.0,87,-99.99,,,-99.99,,2013-03-10 22:32:00,
2013-03-10 18:43:00,33.0,29.0,29.88,North,355,11.0,18.0,87,-99.99,,,-99.99,,2013-03-10 22:43:00,
2013-03-10 18:52:00,33.0,29.0,29.88,North,0,10.0,18.0,87,-99.99,,,-99.99,,2013-03-10 22:52:00,
2013-03-10 19:03:00,33.0,29.0,29.88,NNW,345,10.0,20.0,87,-99.99,,,-99.99,,2013-03-10 23:03:00,
2013-03-10 19:12:00,33.0,29.0,29.88,NNW,345,10.0,20.0,87,-99.99,,,-99.99,,2013-03-10 23:12:00,
2013-03-10 19:23:00,33.0,30.0,29.88,North,350,8.0,18.0,88,-99.99,,,-99.99,,2013-03-10 23:23:00,
2013-03-10 19:33:00,33.0,30.0,29.88,NNW,345,9.0,16.0,88,-99.99,,,-99.99,,2013-03-10 23:33:00,
2013-03-10 19:42:00,33.0,30.0,29.88,NNW,345,9.0,16.0,88,-99.99,,,-99.99,,2013-03-10 23:42:00,
2013-03-10 19:52:00,33.0,30.0,29.88,North,5,9.0,16.0,88,-99.99,,,-99.99,,2013-03-10 23:52:00,
2013-03-10 20:02:00,33.0,30.0,29.89,North,0,9.0,16.0,89,-99.99,,,-99.99,,2013-03-11 00:02:00,
2013-03-10 20:12:00,33.0,30.0,29.89,North,0,9.0,16.0,89,-99.99,,,-99.99,,2013-03-11 00:12:00,
2013-03-10 20:23:00,33.0,30.0,29.88,NNE,20,7.0,14.0,89,-99.99,,,-99.99,,2013-03-11 00:23:00,
2013-03-10 20:33:00,33.0,30.0,29.89,North,0,6.0,14.0,89,-99.99,,,-99.99,,2013-03-11 00:33:00,
2013-03-10 20:43:00,33.0,30.0,29.89,North,0,6.0,14.0,89,-99.99,,,-99.99,,2013-03-11 00:43:00,
2013-03-10 20:52:00,33.0,30.0,29.90,North,5,5.0,12.0,89,-99.99,,,-99.99,,2013-03-11 00:52:00,
2013-03-10 21:03:00,33.0,30.0,29.91,North,5,5.0,14.0,89,-99.99,,,-99.99,,2013-03-11 01:03:00,
2013-03-10 21:13:00,33.0,30.0,29.91,North,5,5.0,14.0,89,-99.99,,,-99.99,,2013-03-11 01:13:00,
2013-03-10 21:23:00,33.0,30.0,29.91,NNE,30,6.0,14.0,89,-99.99,,,-99.99,,2013-03-11 01:23:00,
2013-03-10 21:32:00,33.0,30.0,29.92,North,10,6.0,14.0,89,-99.99,,,-99.99,,2013-03-11 01:32:00,
2013-03-10 21:42:00,33.0,30.0,29.92,North,10,6.0,14.0,89,-99.99,,,-99.99,,2013-03-11 01:42:00,
2013-03-10 21:52:00,33.0,30.0,29.91,North,10,6.0,14.0,89,-99.99,,,-99.99,,2013-03-11 01:52:00,
2013-03-10 22:02:00,33.0,30.0,29.90,North,0,6.0,15.0,89,-99.99,,,-99.99,,2013-03-11 02:02:00,
2013-03-10 22:12:00,33.0,30.0,29.90,North,0,6.0,15.0,89,-99.99,,,-99.99,,2013-03-11 02:12:00,
2013-03-10 22:22:00,33.0,30.0,29.90,North,10,6.0,13.0,89,-99.99,,,-99.99,,2013-03-11 02:22:00,
2013-03-10 22:32:00,33.0,30.0,29.90,NNE,20,6.0,15.0,89,-99.99,,,-99.99,,2013-03-11 02:32:00,
2013-03-10 22:42:00,33.0,30.0,29.90,NNE,20,6.0,15.0,89,-99.99,,,-99.99,,2013-03-11 02:42:00,
2013-03-10 22:52:00,33.0,30.0,29.91,North,0,6.0,12.0,89,-99.99,,,-99.99,,2013-03-11 02:52:00,
2013-03-10 23:02:00,33.0,30.0,29.90,NNE,20,6.0,11.0,90,-99.99,,,-99.99,,2013-03-11 03:02:00,
2013-03-10 23:12:00,33.0,30.0,29.90,NNE,20,6.0,11.0,90,-99.99,,,-99.99,,2013-03-11 03:12:00,
2013-03-10 23:22:00,33.0,30.0,29.88,NNE,15,6.0,13.0,90,-99.99,,,-99.99,,2013-03-11 03:22:00,
2013-03-10 23:32:00,33.0,31.0,29.88,NNE,30,3.0,14.0,91,-99.99,,,-99.99,,2013-03-11 03:32:00,
2013-03-10 23:42:00,33.0,31.0,29.88,NNE,30,3.0,14.0,91,-99.99,,,-99.99,,2013-03-11 03:42:00,